| time (UTC) | temp F | wind direction | speed MPH | gust MPH | rain 1hr in | rain 24hr in | rain mn in | humidity % | barometer mb |
| 20260504004523 | 59 | 142 | 1.0 | 7.0 | 0.00 | 0.00 | 0.00 | 58 | 1013.4 |
| 20260504004019 | 59 | 46 | 0.0 | 5.0 | 0.00 | 0.00 | 0.00 | 58 | 1013.4 |
| 20260504003519 | 59 | 40 | 2.0 | 5.0 | 0.00 | 0.00 | 0.00 | 58 | 1013.3 |
| 20260504003019 | 59 | 278 | 1.0 | 5.0 | 0.00 | 0.00 | 0.00 | 58 | 1013.4 |
| 20260504002518 | 59 | 242 | 2.0 | 5.0 | 0.00 | 0.00 | 0.00 | 58 | 1013.4 |
| 20260504002017 | 59 | 277 | 0.0 | 3.0 | 0.00 | 0.00 | 0.00 | 58 | 1013.4 |
| 20260504001517 | 59 | 277 | 0.0 | 4.0 | 0.00 | 0.00 | 0.00 | 58 | 1013.3 |
| 20260504001015 | 59 | 271 | 1.0 | 5.0 | 0.00 | 0.00 | 0.00 | 57 | 1013.2 |
| 20260504000515 | 60 | 112 | 1.0 | 9.0 | 0.00 | 0.00 | 0.00 | 57 | 1013.2 |
| 20260504000013 | 60 | 80 | 3.0 | 15.0 | 0.00 | 0.00 | 0.00 | 56 | 1013.4 |
| 20260503235512 | 60 | 80 | 5.0 | 15.0 | 0.00 | 0.00 | 0.00 | 56 | 1013.1 |
| 20260503235013 | 60 | 47 | 4.0 | 9.0 | 0.00 | 0.00 | 0.00 | 56 | 1013.4 |
| 20260503234525 | 60 | 88 | 3.0 | 10.0 | 0.00 | 0.00 | 0.00 | 56 | 1013.3 |
| 20260503234011 | 60 | 94 | 3.0 | 11.0 | 0.00 | 0.00 | 0.00 | 56 | 1013.3 |
| 20260503233510 | 60 | 162 | 3.0 | 10.0 | 0.00 | 0.00 | 0.00 | 56 | 1013.3 |
| 20260503233010 | 60 | 55 | 4.0 | 10.0 | 0.00 | 0.00 | 0.00 | 56 | 1013.1 |
| 20260503232509 | 60 | 80 | 4.0 | 11.0 | 0.00 | 0.00 | 0.00 | 56 | 1013.3 |
| 20260503232009 | 60 | 86 | 3.0 | 9.0 | 0.00 | 0.00 | 0.00 | 56 | 1013.2 |
| 20260503231508 | 61 | 105 | 1.0 | 6.0 | 0.00 | 0.00 | 0.00 | 56 | 1013.3 |
| 20260503231013 | 61 | 281 | 1.0 | 6.0 | 0.00 | 0.00 | 0.00 | 56 | 1013.2 |
| 20260503230512 | 61 | 43 | 1.0 | 8.0 | 0.00 | 0.00 | 0.00 | 55 | 1013.2 |
| 20260503230008 | 61 | 5 | 4.0 | 8.0 | 0.00 | 0.00 | 0.00 | 56 | 1013.3 |
| 20260503225506 | 61 | 161 | 1.0 | 8.0 | 0.00 | 0.00 | 0.00 | 55 | 1013.3 |
| 20260503225006 | 61 | 360 | 2.0 | 8.0 | 0.00 | 0.00 | 0.00 | 55 | 1013.3 |
| 20260503224507 | 61 | 106 | 3.0 | 8.0 | 0.00 | 0.00 | 0.00 | 55 | 1013.3 |
| 20260503224005 | 61 | 13 | 2.0 | 9.0 | 0.00 | 0.00 | 0.00 | 55 | 1013.1 |
| 20260503223505 | 61 | 32 | 3.0 | 10.0 | 0.00 | 0.00 | 0.00 | 55 | 1013.2 |
| 20260503223004 | 61 | 61 | 2.0 | 10.0 | 0.00 | 0.00 | 0.00 | 55 | 1013.0 |
| 20260503222505 | 61 | 78 | 3.0 | 6.0 | 0.00 | 0.00 | 0.00 | 55 | 1013.1 |
| 20260503222002 | 61 | 190 | 2.0 | 10.0 | 0.00 | 0.00 | 0.00 | 54 | 1012.8 |
| 20260503221503 | 62 | 71 | 4.0 | 10.0 | 0.00 | 0.00 | 0.00 | 54 | 1013.0 |
| 20260503221002 | 62 | 88 | 3.0 | 10.0 | 0.00 | 0.00 | 0.00 | 54 | 1013.0 |
| 20260503220502 | 62 | 87 | 2.0 | 10.0 | 0.00 | 0.00 | 0.00 | 54 | 1013.0 |
| 20260503220104 | 62 | 94 | 4.0 | 8.0 | 0.00 | 0.00 | 0.00 | 54 | 1013.0 |
| 20260503215559 | 62 | 28 | 3.0 | 10.0 | 0.00 | 0.00 | 0.00 | 53 | 1013.0 |
| 20260503215100 | 62 | 313 | 2.0 | 10.0 | 0.00 | 0.00 | 0.00 | 53 | 1013.0 |
| 20260503214602 | 62 | 355 | 2.0 | 6.0 | 0.00 | 0.00 | 0.00 | 53 | 1013.0 |
| 20260503214104 | 62 | 5 | 2.0 | 10.0 | 0.00 | 0.00 | 0.00 | 53 | 1013.0 |
| 20260503213603 | 62 | 106 | 4.0 | 10.0 | 0.00 | 0.00 | 0.00 | 53 | 1013.1 |
| 20260503213112 | 62 | 63 | 2.0 | 7.0 | 0.00 | 0.00 | 0.00 | 53 | 1013.0 |
| 20260503212600 | 62 | 94 | 3.0 | 5.0 | 0.00 | 0.00 | 0.00 | 53 | 1013.0 |
| 20260503212059 | 63 | 78 | 2.0 | 11.0 | 0.00 | 0.00 | 0.00 | 53 | 1013.1 |
| 20260503211558 | 63 | 88 | 3.0 | 11.0 | 0.00 | 0.00 | 0.00 | 52 | 1013.0 |
| 20260503211058 | 63 | 360 | 3.0 | 8.0 | 0.00 | 0.00 | 0.00 | 52 | 1013.0 |
| 20260503210558 | 63 | 254 | 1.0 | 9.0 | 0.00 | 0.00 | 0.00 | 52 | 1013.0 |
| 20260503210105 | 63 | 65 | 4.0 | 9.0 | 0.00 | 0.00 | 0.00 | 52 | 1012.9 |
| 20260503205559 | 63 | 13 | 2.0 | 8.0 | 0.00 | 0.00 | 0.00 | 52 | 1013.0 |
| 20260503205100 | 63 | 65 | 4.0 | 12.0 | 0.00 | 0.00 | 0.00 | 52 | 1012.8 |
| 20260503204558 | 63 | 42 | 4.0 | 12.0 | 0.00 | 0.00 | 0.00 | 52 | 1012.9 |
| 20260503204200 | 63 | 337 | 2.0 | 9.0 | 0.00 | 0.00 | 0.00 | 52 | 1013.0 |
| 20260503203558 | 64 | 19 | 2.0 | 9.0 | 0.00 | 0.00 | 0.00 | 52 | 1012.9 |
| 20260503203103 | 64 | 82 | 3.0 | 8.0 | 0.00 | 0.00 | 0.00 | 52 | 1012.9 |
| 20260503202558 | 64 | 264 | 1.0 | 6.0 | 0.00 | 0.00 | 0.00 | 51 | 1013.0 |
| 20260503202058 | 64 | 24 | 1.0 | 6.0 | 0.00 | 0.00 | 0.00 | 51 | 1012.9 |
| 20260503201557 | 64 | 315 | 2.0 | 9.0 | 0.00 | 0.00 | 0.00 | 51 | 1013.0 |
| 20260503201056 | 64 | 5 | 2.0 | 8.0 | 0.00 | 0.00 | 0.00 | 51 | 1012.9 |
| 20260503200559 | 64 | 74 | 2.0 | 8.0 | 0.00 | 0.00 | 0.00 | 51 | 1012.9 |
| 20260503200058 | 64 | 51 | 3.0 | 8.0 | 0.00 | 0.00 | 0.00 | 51 | 1012.9 |
| 20260503195555 | 65 | 42 | 3.0 | 13.0 | 0.00 | 0.00 | 0.00 | 50 | 1013.0 |
| 20260503195055 | 65 | 178 | 3.0 | 13.0 | 0.00 | 0.00 | 0.00 | 50 | 1012.9 |
| 20260503194555 | 65 | 311 | 4.0 | 9.0 | 0.00 | 0.00 | 0.00 | 50 | 1013.0 |
| 20260503194058 | 65 | 256 | 3.0 | 11.0 | 0.00 | 0.00 | 0.00 | 50 | 1013.0 |
| 20260503193555 | 65 | 109 | 4.0 | 11.0 | 0.00 | 0.00 | 0.00 | 49 | 1012.9 |
| 20260503193103 | 65 | 69 | 3.0 | 8.0 | 0.00 | 0.00 | 0.00 | 49 | 1012.9 |
| 20260503192554 | 66 | 17 | 3.0 | 8.0 | 0.00 | 0.00 | 0.00 | 49 | 1013.2 |
| 20260503192053 | 66 | 330 | 3.0 | 8.0 | 0.00 | 0.00 | 0.00 | 49 | 1012.8 |
| 20260503191556 | 66 | 294 | 2.0 | 7.0 | 0.00 | 0.00 | 0.00 | 49 | 1012.9 |
| 20260503191054 | 66 | 204 | 2.0 | 6.0 | 0.00 | 0.00 | 0.00 | 48 | 1012.8 |
| 20260503190553 | 66 | 275 | 2.0 | 7.0 | 0.00 | 0.00 | 0.00 | 48 | 1012.8 |
| 20260503190055 | 66 | 328 | 2.0 | 5.0 | 0.00 | 0.00 | 0.00 | 48 | 1012.7 |
| 20260503185552 | 66 | 67 | 2.0 | 6.0 | 0.00 | 0.00 | 0.00 | 48 | 1012.8 |
| 20260503185055 | 66 | 338 | 2.0 | 6.0 | 0.00 | 0.00 | 0.00 | 47 | 1012.8 |
| 20260503184607 | 66 | 10 | 2.0 | 5.0 | 0.00 | 0.00 | 0.00 | 47 | 1012.8 |
| 20260503184051 | 66 | 271 | 2.0 | 4.0 | 0.00 | 0.00 | 0.00 | 47 | 1012.8 |
| 20260503183553 | 67 | 313 | 2.0 | 5.0 | 0.00 | 0.00 | 0.00 | 47 | 1012.7 |
| 20260503183103 | 67 | 34 | 2.0 | 5.0 | 0.00 | 0.00 | 0.00 | 46 | 1012.5 |
| 20260503182554 | 67 | 32 | 1.0 | 4.0 | 0.00 | 0.00 | 0.00 | 46 | 1012.7 |
| 20260503182053 | 67 | 34 | 2.0 | 4.0 | 0.00 | 0.00 | 0.00 | 46 | 1012.5 |
| 20260503181603 | 68 | 360 | 1.0 | 5.0 | 0.00 | 0.00 | 0.00 | 45 | 1012.5 |
| 20260503181051 | 68 | 80 | 2.0 | 5.0 | 0.00 | 0.00 | 0.00 | 45 | 1012.6 |
| 20260503180551 | 68 | 11 | 1.0 | 4.0 | 0.00 | 0.00 | 0.00 | 44 | 1012.5 |
| 20260503180051 | 68 | 72 | 1.0 | 3.0 | 0.00 | 0.00 | 0.00 | 44 | 1012.6 |
| 20260503175549 | 68 | 76 | 1.0 | 4.0 | 0.00 | 0.00 | 0.00 | 44 | 1012.6 |
| 20260503175054 | 69 | 34 | 1.0 | 4.0 | 0.00 | 0.00 | 0.00 | 43 | 1012.6 |
| 20260503174549 | 69 | 325 | 1.0 | 3.0 | 0.00 | 0.00 | 0.00 | 43 | 1012.6 |
| 20260503174050 | 69 | 17 | 1.0 | 6.0 | 0.00 | 0.00 | 0.00 | 44 | 1012.6 |
| 20260503173550 | 69 | 246 | 1.0 | 6.0 | 0.00 | 0.00 | 0.00 | 42 | 1012.6 |
| 20260503173058 | 69 | 331 | 1.0 | 3.0 | 0.00 | 0.00 | 0.00 | 44 | 1012.6 |
| 20260503172550 | 70 | 40 | 1.0 | 3.0 | 0.00 | 0.00 | 0.00 | 41 | 1012.6 |
| 20260503172048 | 70 | 315 | 0.0 | 3.0 | 0.00 | 0.00 | 0.00 | 42 | 1012.5 |
| 20260503171548 | 71 | 271 | 0.0 | 3.0 | 0.00 | 0.00 | 0.00 | 40 | 1012.6 |
| 20260503171047 | 71 | 152 | 0.0 | 2.0 | 0.00 | 0.00 | 0.00 | 41 | 1012.7 |
| 20260503170547 | 71 | 152 | 0.0 | 3.0 | 0.00 | 0.00 | 0.00 | 40 | 1012.7 |
| 20260503150539 | 73 | 96 | 3.0 | 11.0 | 0.00 | 0.00 | 0.00 | 31 | 1013.4 |
| 20260503131027 | 73 | 180 | 4.0 | 11.0 | 0.00 | 0.00 | 0.00 | 38 | 1014.9 |
| 20260503130525 | 73 | 156 | 3.0 | 9.0 | 0.00 | 0.00 | 0.00 | 41 | 1014.9 |
| 20260503110515 | 71 | 229 | 5.0 | 10.0 | 0.00 | 0.00 | 0.00 | 40 | 1016.1 |
| 20260503081604 | 63 | 171 | 3.0 | 10.0 | 0.00 | 0.00 | 0.00 | 51 | 1017.4 |
| 20260503081039 | 63 | 134 | 3.0 | 8.0 | 0.00 | 0.00 | 0.00 | 50 | 1017.4 |
| 20260503080539 | 63 | 97 | 3.0 | 14.0 | 0.00 | 0.00 | 0.00 | 48 | 1017.5 |
| 20260503072530 | 61 | 132 | 2.0 | 7.0 | 0.00 | 0.00 | 0.00 | 50 | 1017.5 |
| 20260503072031 | 61 | 130 | 1.0 | 8.0 | 0.00 | 0.00 | 0.00 | 50 | 1017.5 |
| 20260503071530 | 61 | 144 | 3.0 | 8.0 | 0.00 | 0.00 | 0.00 | 50 | 1017.4 |
| 20260503071028 | 61 | 88 | 1.0 | 6.0 | 0.00 | 0.00 | 0.00 | 52 | 1017.4 |
| 20260503070527 | 60 | 96 | 1.0 | 8.0 | 0.00 | 0.00 | 0.00 | 52 | 1017.4 |
| 20260503055014 | 57 | 80 | 3.0 | 8.0 | 0.00 | 0.00 | 0.00 | 55 | 1017.4 |
| 20260503054516 | 56 | 82 | 2.0 | 8.0 | 0.00 | 0.00 | 0.00 | 56 | 1017.3 |
| 20260503054013 | 56 | 80 | 4.0 | 8.0 | 0.00 | 0.00 | 0.00 | 56 | 1017.4 |
| 20260503053512 | 56 | 81 | 4.0 | 8.0 | 0.00 | 0.00 | 0.00 | 56 | 1017.3 |
| 20260503053014 | 56 | 87 | 2.0 | 7.0 | 0.00 | 0.00 | 0.00 | 57 | 1017.3 |
| 20260503052512 | 55 | 86 | 3.0 | 6.0 | 0.00 | 0.00 | 0.00 | 57 | 1017.3 |
| 20260503052011 | 55 | 74 | 3.0 | 9.0 | 0.00 | 0.00 | 0.00 | 57 | 1017.4 |
| 20260503051511 | 55 | 76 | 3.0 | 9.0 | 0.00 | 0.00 | 0.00 | 56 | 1017.3 |
| 20260503051010 | 55 | 53 | 4.0 | 7.0 | 0.00 | 0.00 | 0.00 | 57 | 1017.3 |
| 20260503050509 | 54 | 67 | 3.0 | 7.0 | 0.00 | 0.00 | 0.00 | 57 | 1017.4 |
| 20260503050025 | 54 | 86 | 3.0 | 9.0 | 0.00 | 0.00 | 0.00 | 57 | 1017.4 |
| 20260503045508 | 54 | 69 | 5.0 | 9.0 | 0.00 | 0.00 | 0.00 | 57 | 1017.3 |
| 20260503045012 | 54 | 84 | 4.0 | 7.0 | 0.00 | 0.00 | 0.00 | 57 | 1017.3 |
| 20260503044506 | 54 | 76 | 4.0 | 7.0 | 0.00 | 0.00 | 0.00 | 57 | 1017.4 |
| 20260503044005 | 54 | 88 | 4.0 | 7.0 | 0.00 | 0.00 | 0.00 | 57 | 1017.3 |
| 20260503043504 | 54 | 88 | 4.0 | 7.0 | 0.00 | 0.00 | 0.00 | 57 | 1017.3 |
| 20260503043005 | 54 | 90 | 2.0 | 8.0 | 0.00 | 0.00 | 0.00 | 57 | 1017.3 |
| 20260503042503 | 54 | 74 | 4.0 | 8.0 | 0.00 | 0.00 | 0.00 | 57 | 1017.2 |
| 20260503042003 | 54 | 105 | 3.0 | 7.0 | 0.00 | 0.00 | 0.00 | 57 | 1017.2 |
| 20260503041506 | 54 | 61 | 4.0 | 10.0 | 0.00 | 0.00 | 0.00 | 57 | 1017.2 |
| 20260503041002 | 54 | 77 | 4.0 | 10.0 | 0.00 | 0.00 | 0.00 | 57 | 1017.3 |
| 20260503040600 | 54 | 80 | 3.0 | 6.0 | 0.00 | 0.00 | 0.00 | 57 | 1017.2 |
| 20260503035559 | 54 | 69 | 2.0 | 5.0 | 0.00 | 0.00 | 0.00 | 57 | 1017.3 |
| 20260503035058 | 54 | 88 | 3.0 | 8.0 | 0.00 | 0.00 | 0.00 | 57 | 1017.3 |
| 20260503034558 | 54 | 84 | 3.0 | 8.0 | 0.00 | 0.00 | 0.00 | 57 | 1017.3 |
| 20260503034057 | 54 | 74 | 3.0 | 6.0 | 0.00 | 0.00 | 0.00 | 56 | 1017.4 |
| 20260503033657 | 54 | 86 | 3.0 | 6.0 | 0.00 | 0.00 | 0.00 | 56 | 1017.4 |
| 20260503033125 | 54 | 90 | 2.0 | 6.0 | 0.00 | 0.00 | 0.00 | 55 | 1017.3 |
| 20260503032554 | 55 | 90 | 3.0 | 6.0 | 0.00 | 0.00 | 0.00 | 55 | 1017.3 |
| 20260503032055 | 55 | 79 | 3.0 | 6.0 | 0.00 | 0.00 | 0.00 | 55 | 1017.3 |
| 20260503031559 | 55 | 92 | 3.0 | 6.0 | 0.00 | 0.00 | 0.00 | 55 | 1017.3 |
| 20260503031053 | 55 | 82 | 2.0 | 6.0 | 0.00 | 0.00 | 0.00 | 55 | 1017.3 |
| 20260503030556 | 55 | 92 | 2.0 | 5.0 | 0.00 | 0.00 | 0.00 | 55 | 1017.3 |
| 20260503030104 | 55 | 77 | 2.0 | 4.0 | 0.00 | 0.00 | 0.00 | 55 | 1017.3 |
| 20260503025552 | 55 | 84 | 2.0 | 6.0 | 0.00 | 0.00 | 0.00 | 55 | 1017.3 |
| 20260503025051 | 55 | 92 | 2.0 | 6.0 | 0.00 | 0.00 | 0.00 | 54 | 1017.3 |
| 20260503024615 | 55 | 82 | 2.0 | 4.0 | 0.00 | 0.00 | 0.00 | 54 | 1017.3 |
| 20260503024051 | 55 | 82 | 2.0 | 4.0 | 0.00 | 0.00 | 0.00 | 54 | 1017.4 |
| 20260503023551 | 55 | 88 | 2.0 | 4.0 | 0.00 | 0.00 | 0.00 | 54 | 1017.5 |
| 20260503023049 | 55 | 79 | 2.0 | 4.0 | 0.00 | 0.00 | 0.00 | 53 | 1017.4 |
| 20260503022552 | 55 | 86 | 1.0 | 4.0 | 0.00 | 0.00 | 0.00 | 53 | 1017.4 |
| 20260503022051 | 56 | 87 | 2.0 | 4.0 | 0.00 | 0.00 | 0.00 | 53 | 1017.4 |
| 20260503021546 | 56 | 76 | 2.0 | 4.0 | 0.00 | 0.00 | 0.00 | 52 | 1017.6 |
| 20260503021044 | 57 | 81 | 2.0 | 4.0 | 0.00 | 0.00 | 0.00 | 51 | 1017.6 |
| 20260503020545 | 57 | 90 | 2.0 | 6.0 | 0.00 | 0.00 | 0.00 | 51 | 1017.5 |
| 20260503020047 | 57 | 88 | 2.0 | 6.0 | 0.00 | 0.00 | 0.00 | 50 | 1017.6 |
| 20260503015542 | 57 | 90 | 1.0 | 4.0 | 0.00 | 0.00 | 0.00 | 50 | 1017.5 |
| 20260503015041 | 58 | 84 | 2.0 | 4.0 | 0.00 | 0.00 | 0.00 | 50 | 1017.5 |
| 20260503014543 | 58 | 81 | 2.0 | 7.0 | 0.00 | 0.00 | 0.00 | 49 | 1017.6 |
| 20260503014041 | 58 | 84 | 0.0 | 9.0 | 0.00 | 0.00 | 0.00 | 49 | 1017.6 |
| 20260503013539 | 58 | 93 | 3.0 | 9.0 | 0.00 | 0.00 | 0.00 | 49 | 1017.6 |
| 20260503013039 | 58 | 105 | 2.0 | 6.0 | 0.00 | 0.00 | 0.00 | 49 | 1017.6 |
| 20260503012540 | 59 | 86 | 2.0 | 6.0 | 0.00 | 0.00 | 0.00 | 49 | 1017.6 |
| 20260503012036 | 59 | 80 | 2.0 | 6.0 | 0.00 | 0.00 | 0.00 | 48 | 1017.6 |
| 20260503011541 | 59 | 84 | 2.0 | 8.0 | 0.00 | 0.00 | 0.00 | 48 | 1017.6 |
| 20260503011038 | 59 | 80 | 3.0 | 8.0 | 0.00 | 0.00 | 0.00 | 48 | 1017.7 |
| 20260503010535 | 59 | 71 | 2.0 | 8.0 | 0.00 | 0.00 | 0.00 | 48 | 1017.5 |
| 20260503010035 | 59 | 85 | 2.0 | 8.0 | 0.00 | 0.00 | 0.00 | 47 | 1017.6 |
| 20260503005534 | 59 | 136 | 2.0 | 5.0 | 0.00 | 0.00 | 0.00 | 47 | 1017.6 |
| 20260503005033 | 59 | 103 | 1.0 | 6.0 | 0.00 | 0.00 | 0.00 | 47 | 1017.6 |